Time,TemperatureF,DewpointF,PressureIn,WindDirection,WindDirectionDegrees,WindSpeedMPH,WindSpeedGustMPH,Humidity,HourlyPrecipIn,Conditions,Clouds,dailyrainin,SoftwareType,DateUTC
2013-06-30 00:00:00,75.0,45.5,29.74,WNW,300,9.2,10.1,35,0.00,,---,0.00,VWS V14.01,2013-06-29 21:00:00,
2013-06-30 00:06:00,75.0,45.5,29.74,NW,307,5.8,8.1,35,0.00,,---,0.00,VWS V14.01,2013-06-29 21:06:00,
2013-06-30 00:12:00,74.8,45.4,29.74,WNW,294,8.3,13.2,35,0.00,,---,0.00,VWS V14.01,2013-06-29 21:12:00,
2013-06-30 00:17:00,74.7,46.0,29.74,WNW,291,6.3,10.1,36,0.00,,---,0.00,VWS V14.01,2013-06-29 21:17:00,
2013-06-30 00:23:00,74.5,45.8,29.74,West,276,9.2,12.3,36,0.00,,---,0.00,VWS V14.01,2013-06-29 21:23:00,
2013-06-30 00:28:00,74.3,45.7,29.74,WNW,283,11.0,13.2,36,0.00,,---,0.00,VWS V14.01,2013-06-29 21:28:00,
2013-06-30 00:34:00,74.3,45.7,29.74,WNW,282,8.7,16.3,36,0.00,,---,0.00,VWS V14.01,2013-06-29 21:34:00,
2013-06-30 00:40:00,74.1,46.2,29.74,NNW,332,7.6,8.3,37,0.00,,---,0.00,VWS V14.01,2013-06-29 21:40:00,
2013-06-30 00:45:00,73.9,46.0,29.74,West,263,10.1,14.1,37,0.00,,---,0.00,VWS V14.01,2013-06-29 21:45:00,
2013-06-30 00:51:00,73.8,45.9,29.74,West,276,5.8,9.6,37,0.00,,---,0.00,VWS V14.01,2013-06-29 21:51:00,
2013-06-30 00:56:00,73.8,45.9,29.74,WNW,294,4.0,8.7,37,0.00,,---,0.00,VWS V14.01,2013-06-29 21:56:00,
2013-06-30 01:02:00,73.6,46.4,29.74,West,259,8.1,8.1,38,0.00,,---,0.00,VWS V14.01,2013-06-29 22:02:00,
2013-06-30 01:08:00,73.4,46.3,29.74,WSW,251,3.6,6.3,38,0.00,,---,0.00,VWS V14.01,2013-06-29 22:08:00,
2013-06-30 01:13:00,73.2,46.8,29.74,West,280,7.6,7.6,39,0.00,,---,0.00,VWS V14.01,2013-06-29 22:13:00,
2013-06-30 01:19:00,73.2,46.8,29.74,West,279,12.3,12.3,39,0.00,,---,0.00,VWS V14.01,2013-06-29 22:19:00,
2013-06-30 01:24:00,73.4,47.0,29.74,WNW,301,10.5,13.2,39,0.00,,---,0.00,VWS V14.01,2013-06-29 22:24:00,
2013-06-30 01:30:00,73.4,47.0,29.74,West,275,6.3,8.7,39,0.00,,---,0.00,VWS V14.01,2013-06-29 22:30:00,
2013-06-30 01:36:00,73.2,47.5,29.74,West,272,10.5,10.5,40,0.00,,---,0.00,VWS V14.01,2013-06-29 22:36:00,
2013-06-30 01:41:00,73.2,47.5,29.74,SW,218,6.3,8.1,40,0.00,,---,0.00,VWS V14.01,2013-06-29 22:41:00,
2013-06-30 01:47:00,73.0,48.0,29.74,WSW,254,12.3,12.3,41,0.00,,---,0.00,VWS V14.01,2013-06-29 22:47:00,
2013-06-30 01:52:00,73.0,48.6,29.74,WNW,302,5.4,8.3,42,0.00,,---,0.00,VWS V14.01,2013-06-29 22:52:00,
2013-06-30 01:58:00,72.9,49.1,29.74,West,275,9.2,11.0,43,0.00,,---,0.00,VWS V14.01,2013-06-29 22:58:00,
2013-06-30 02:03:00,72.7,48.9,29.74,WSW,247,8.1,8.3,43,0.00,,---,0.00,VWS V14.01,2013-06-29 23:03:00,
2013-06-30 02:08:00,72.7,48.9,29.74,West,266,3.1,7.6,43,0.00,,---,0.00,VWS V14.01,2013-06-29 23:08:00,
2013-06-30 02:12:00,72.5,49.4,29.74,NW,314,4.0,8.1,44,0.00,,---,0.00,VWS V14.01,2013-06-29 23:12:00,
2013-06-30 02:18:00,72.5,49.4,29.74,West,265,3.6,8.3,44,0.00,,---,0.00,VWS V14.01,2013-06-29 23:18:00,
2013-06-30 02:23:00,72.3,49.2,29.74,West,281,4.9,8.1,44,0.00,,---,0.00,VWS V14.01,2013-06-29 23:23:00,
2013-06-30 02:29:00,72.3,49.2,29.74,WSW,250,4.0,5.4,44,0.00,,---,0.00,VWS V14.01,2013-06-29 23:29:00,
2013-06-30 02:34:00,72.1,49.0,29.74,WSW,248,5.8,5.8,44,0.00,,---,0.00,VWS V14.01,2013-06-29 23:34:00,
2013-06-30 02:40:00,72.1,49.7,29.71,WSW,249,3.6,4.0,45,0.00,,---,0.00,VWS V14.01,2013-06-29 23:40:00,
2013-06-30 02:45:00,72.0,49.5,29.71,West,262,6.3,6.3,45,0.00,,---,0.00,VWS V14.01,2013-06-29 23:45:00,
2013-06-30 02:51:00,72.0,50.1,29.71,WSW,238,2.7,7.6,46,0.00,,---,0.00,VWS V14.01,2013-06-29 23:51:00,
2013-06-30 02:57:00,71.8,49.9,29.74,WSW,246,0.0,8.7,46,0.00,,---,0.00,VWS V14.01,2013-06-29 23:57:00,
2013-06-30 03:03:00,71.8,49.9,29.74,WNW,297,5.4,5.4,46,0.00,,---,0.00,VWS V14.01,2013-06-30 00:03:00,
2013-06-30 03:08:00,71.8,49.9,29.74,WSW,238,0.0,10.1,46,0.00,,---,0.00,VWS V14.01,2013-06-30 00:08:00,
2013-06-30 03:14:00,71.6,49.8,29.74,WSW,250,4.0,5.4,46,0.00,,---,0.00,VWS V14.01,2013-06-30 00:14:00,
2013-06-30 03:19:00,71.6,50.3,29.74,West,278,13.2,13.2,47,0.00,,---,0.00,VWS V14.01,2013-06-30 00:19:00,
2013-06-30 03:25:00,71.6,50.3,29.71,WNW,283,5.8,8.7,47,0.00,,---,0.00,VWS V14.01,2013-06-30 00:25:00,
2013-06-30 03:30:00,71.4,50.7,29.71,West,264,3.6,6.3,48,0.00,,---,0.00,VWS V14.01,2013-06-30 00:30:00,
2013-06-30 03:36:00,71.4,50.7,29.71,West,259,5.4,5.8,48,0.00,,---,0.00,VWS V14.01,2013-06-30 00:36:00,
2013-06-30 03:42:00,71.4,50.7,29.71,WNW,286,6.3,7.6,48,0.00,,---,0.00,VWS V14.01,2013-06-30 00:42:00,
2013-06-30 03:47:00,71.2,51.1,29.71,WSW,252,6.3,8.1,49,0.00,,---,0.00,VWS V14.01,2013-06-30 00:47:00,
2013-06-30 03:53:00,71.2,51.7,29.74,SW,217,8.3,8.3,50,0.00,,---,0.00,VWS V14.01,2013-06-30 00:53:00,
2013-06-30 03:58:00,71.2,51.7,29.74,WNW,294,5.4,7.6,50,0.00,,---,0.00,VWS V14.01,2013-06-30 00:58:00,
2013-06-30 04:04:00,71.1,51.5,29.74,West,264,7.6,7.6,50,0.00,,---,0.00,VWS V14.01,2013-06-30 01:04:00,
2013-06-30 04:09:00,71.1,51.5,29.74,WSW,246,5.4,5.8,50,0.00,,---,0.00,VWS V14.01,2013-06-30 01:09:00,
2013-06-30 04:15:00,71.1,52.0,29.74,WSW,257,6.3,8.1,51,0.00,,---,0.00,VWS V14.01,2013-06-30 01:15:00,
2013-06-30 04:20:00,71.1,52.0,29.74,West,279,3.6,8.3,51,0.00,,---,0.00,VWS V14.01,2013-06-30 01:20:00,
2013-06-30 04:25:00,70.9,51.9,29.74,NW,318,5.8,5.8,51,0.00,,---,0.00,VWS V14.01,2013-06-30 01:25:00,
2013-06-30 04:31:00,70.9,51.9,29.74,West,272,5.4,6.3,51,0.00,,---,0.00,VWS V14.01,2013-06-30 01:31:00,
2013-06-30 04:36:00,70.9,51.9,29.74,West,270,5.8,7.6,51,0.00,,---,0.00,VWS V14.01,2013-06-30 01:36:00,
2013-06-30 04:42:00,70.7,51.7,29.74,WSW,238,0.0,5.4,51,0.00,,---,0.00,VWS V14.01,2013-06-30 01:42:00,
2013-06-30 04:47:00,70.7,51.7,29.74,WSW,255,2.7,5.8,51,0.00,,---,0.00,VWS V14.01,2013-06-30 01:47:00,
2013-06-30 04:53:00,70.7,52.2,29.74,WSW,252,7.2,8.3,52,0.00,,---,0.00,VWS V14.01,2013-06-30 01:53:00,
2013-06-30 04:59:00,70.7,51.7,29.74,WSW,245,5.4,6.3,51,0.00,,---,0.00,VWS V14.01,2013-06-30 01:59:00,
2013-06-30 05:04:00,70.7,51.7,29.74,WSW,242,3.6,5.8,51,0.00,,---,0.00,VWS V14.01,2013-06-30 02:04:00,
2013-06-30 05:10:00,70.7,51.7,29.74,SW,233,4.9,5.4,51,0.00,,---,0.00,VWS V14.01,2013-06-30 02:10:00,
2013-06-30 05:15:00,70.5,51.5,29.74,WSW,247,6.3,10.1,51,0.00,,---,0.00,VWS V14.01,2013-06-30 02:15:00,
2013-06-30 05:20:00,70.5,51.5,29.74,WSW,258,6.3,7.6,51,0.00,,---,0.00,VWS V14.01,2013-06-30 02:20:00,
2013-06-30 05:25:00,70.5,51.5,29.71,WSW,239,5.4,6.3,51,0.00,,---,0.00,VWS V14.01,2013-06-30 02:25:00,
2013-06-30 05:30:00,70.3,50.8,29.71,WSW,246,4.9,8.3,50,0.00,,---,0.00,VWS V14.01,2013-06-30 02:30:00,
2013-06-30 05:35:00,70.3,50.8,29.71,WSW,241,5.4,7.2,50,0.00,,---,0.00,VWS V14.01,2013-06-30 02:35:00,
2013-06-30 05:41:00,70.3,50.8,29.74,West,266,6.3,8.1,50,0.00,,---,0.00,VWS V14.01,2013-06-30 02:41:00,
2013-06-30 05:46:00,70.3,50.8,29.74,SW,227,3.6,7.6,50,0.00,,---,0.00,VWS V14.01,2013-06-30 02:46:00,
2013-06-30 05:51:00,70.2,50.7,29.74,SW,227,3.6,8.1,50,0.00,,---,0.00,VWS V14.01,2013-06-30 02:51:00,
2013-06-30 05:56:00,70.2,50.7,29.74,SW,233,6.3,9.2,50,0.00,,---,0.00,VWS V14.01,2013-06-30 02:56:00,
2013-06-30 06:02:00,70.2,50.7,29.74,SW,233,4.0,7.6,50,0.00,,---,0.00,VWS V14.01,2013-06-30 03:02:00,
2013-06-30 06:07:00,70.2,50.7,29.74,WSW,241,7.6,8.7,50,0.00,,---,0.00,VWS V14.01,2013-06-30 03:07:00,
2013-06-30 06:13:00,70.2,50.7,29.74,WSW,243,5.8,5.8,50,0.00,,---,0.00,VWS V14.01,2013-06-30 03:13:00,
2013-06-30 06:18:00,70.0,50.5,29.74,SSW,206,0.0,3.1,50,0.00,,---,0.00,VWS V14.01,2013-06-30 03:18:00,
2013-06-30 06:24:00,70.0,50.5,29.74,West,262,0.0,5.8,50,0.00,,---,0.00,VWS V14.01,2013-06-30 03:24:00,
2013-06-30 06:29:00,69.8,50.3,29.74,SW,217,0.0,0.0,50,0.00,,---,0.00,VWS V14.01,2013-06-30 03:29:00,
2013-06-30 06:35:00,69.6,50.7,29.74,South,183,4.9,6.3,51,0.00,,---,0.00,VWS V14.01,2013-06-30 03:35:00,
2013-06-30 06:41:00,69.6,51.2,29.74,SW,224,4.9,5.8,52,0.00,,---,0.00,VWS V14.01,2013-06-30 03:41:00,
2013-06-30 06:46:00,69.4,51.1,29.74,SSW,202,0.0,0.0,52,0.00,,---,0.00,VWS V14.01,2013-06-30 03:46:00,
2013-06-30 06:52:00,69.3,51.4,29.74,South,180,4.9,6.3,53,0.00,,---,0.00,VWS V14.01,2013-06-30 03:52:00,
2013-06-30 06:58:00,69.1,51.8,29.74,South,191,3.1,4.9,54,0.00,,---,0.00,VWS V14.01,2013-06-30 03:58:00,
2013-06-30 07:01:00,69.3,51.9,29.74,WSW,247,5.4,6.7,54,0.00,,---,0.00,VWS V14.01,2013-06-30 04:01:00,
2013-06-30 07:02:00,69.3,51.9,29.74,WSW,237,8.3,8.3,54,0.00,,---,0.00,VWS V14.01,2013-06-30 04:02:00,
2013-06-30 07:04:00,69.4,52.1,29.74,SSW,209,5.4,6.3,54,0.00,,---,0.00,VWS V14.01,2013-06-30 04:04:00,
2013-06-30 07:05:00,69.4,52.1,29.74,WSW,241,6.3,6.3,54,0.00,,---,0.00,VWS V14.01,2013-06-30 04:05:00,
2013-06-30 07:07:00,69.6,52.3,29.74,SSW,208,5.4,8.1,54,0.00,,---,0.00,VWS V14.01,2013-06-30 04:07:00,
2013-06-30 07:12:00,69.8,51.9,29.74,SSW,203,8.1,8.1,53,0.00,,---,0.00,VWS V14.01,2013-06-30 04:12:00,
2013-06-30 07:17:00,70.0,51.6,29.74,WSW,244,8.7,8.7,52,0.00,,---,0.00,VWS V14.01,2013-06-30 04:17:00,
2013-06-30 07:23:00,70.2,51.2,29.74,WNW,288,5.8,7.6,51,0.00,,---,0.00,VWS V14.01,2013-06-30 04:23:00,
2013-06-30 07:28:00,70.3,50.8,29.74,WSW,251,5.4,10.5,50,0.00,,---,0.00,VWS V14.01,2013-06-30 04:28:00,
2013-06-30 07:33:00,70.5,51.0,29.74,WSW,241,12.3,12.3,50,0.00,,---,0.00,VWS V14.01,2013-06-30 04:33:00,
2013-06-30 07:38:00,70.7,51.2,29.74,WSW,242,5.4,8.7,50,0.00,,---,0.00,VWS V14.01,2013-06-30 04:38:00,
2013-06-30 07:44:00,70.9,50.8,29.74,WSW,238,5.4,6.7,49,0.00,,---,0.00,VWS V14.01,2013-06-30 04:44:00,
2013-06-30 07:49:00,70.9,50.8,29.74,WSW,248,7.6,11.0,49,0.00,,---,0.00,VWS V14.01,2013-06-30 04:49:00,
2013-06-30 07:55:00,71.2,51.1,29.74,WSW,255,4.9,4.9,49,0.00,,---,0.00,VWS V14.01,2013-06-30 04:55:00,
2013-06-30 08:01:00,71.4,51.3,29.74,SSW,200,0.0,0.0,49,0.00,,---,0.00,VWS V14.01,2013-06-30 05:01:00,
2013-06-30 08:07:00,71.6,50.3,29.74,NW,311,10.1,10.1,47,0.00,,---,0.00,VWS V14.01,2013-06-30 05:07:00,
2013-06-30 08:12:00,71.6,50.3,29.74,WNW,296,3.1,5.8,47,0.00,,---,0.00,VWS V14.01,2013-06-30 05:12:00,
2013-06-30 08:18:00,71.8,49.9,29.74,West,260,4.9,7.6,46,0.00,,---,0.00,VWS V14.01,2013-06-30 05:18:00,
2013-06-30 08:23:00,72.0,50.1,29.74,WSW,244,4.9,6.3,46,0.00,,---,0.00,VWS V14.01,2013-06-30 05:23:00,
2013-06-30 08:28:00,72.0,50.1,29.74,WSW,256,8.7,9.6,46,0.00,,---,0.00,VWS V14.01,2013-06-30 05:28:00,
2013-06-30 08:33:00,72.1,49.7,29.74,WSW,246,5.4,10.1,45,0.00,,---,0.00,VWS V14.01,2013-06-30 05:33:00,
2013-06-30 08:39:00,72.1,49.7,29.74,WSW,250,7.6,8.3,45,0.00,,---,0.00,VWS V14.01,2013-06-30 05:39:00,
2013-06-30 08:44:00,72.3,49.8,29.74,SW,215,2.7,7.6,45,0.00,,---,0.00,VWS V14.01,2013-06-30 05:44:00,
2013-06-30 08:50:00,72.7,50.1,29.74,West,261,5.4,8.1,45,0.00,,---,0.00,VWS V14.01,2013-06-30 05:50:00,
2013-06-30 08:55:00,72.7,49.5,29.74,West,263,5.4,6.3,44,0.00,,---,0.00,VWS V14.01,2013-06-30 05:55:00,
2013-06-30 09:01:00,73.0,50.5,29.74,West,266,3.1,6.7,45,0.00,,---,0.00,VWS V14.01,2013-06-30 06:01:00,
2013-06-30 09:07:00,73.2,50.0,29.74,WSW,240,8.3,10.5,44,0.00,,---,0.00,VWS V14.01,2013-06-30 06:07:00,
2013-06-30 09:12:00,73.4,49.6,29.74,WNW,299,8.3,10.5,43,0.00,,---,0.00,VWS V14.01,2013-06-30 06:12:00,
2013-06-30 09:18:00,73.6,49.7,29.74,WSW,244,8.7,8.7,43,0.00,,---,0.00,VWS V14.01,2013-06-30 06:18:00,
2013-06-30 09:23:00,73.6,49.7,29.74,WNW,297,3.1,8.1,43,0.00,,---,0.00,VWS V14.01,2013-06-30 06:23:00,
2013-06-30 09:29:00,73.8,49.9,29.74,West,259,8.1,8.1,43,0.00,,---,0.00,VWS V14.01,2013-06-30 06:29:00,
2013-06-30 09:35:00,73.9,50.1,29.74,WSW,246,3.6,6.3,43,0.00,,---,0.00,VWS V14.01,2013-06-30 06:35:00,
2013-06-30 09:40:00,74.3,50.4,29.74,WSW,245,3.6,6.3,43,0.00,,---,0.00,VWS V14.01,2013-06-30 06:40:00,
2013-06-30 09:46:00,74.7,50.7,29.74,West,275,7.6,9.6,43,0.00,,---,0.00,VWS V14.01,2013-06-30 06:46:00,
2013-06-30 09:51:00,75.0,49.8,29.74,WNW,285,2.7,3.6,41,0.00,,---,0.00,VWS V14.01,2013-06-30 06:51:00,
2013-06-30 09:57:00,75.2,47.9,29.74,West,271,6.3,12.8,38,0.00,,---,0.00,VWS V14.01,2013-06-30 06:57:00,
2013-06-30 10:03:00,74.8,47.6,29.74,WSW,249,5.4,8.1,38,0.00,,---,0.00,VWS V14.01,2013-06-30 07:03:00,
2013-06-30 10:08:00,75.2,47.2,29.74,SW,236,6.3,8.7,37,0.00,,---,0.00,VWS V14.01,2013-06-30 07:08:00,
2013-06-30 10:14:00,75.2,47.2,29.74,SW,229,4.9,8.1,37,0.00,,---,0.00,VWS V14.01,2013-06-30 07:14:00,
2013-06-30 10:19:00,75.4,47.3,29.74,WNW,285,5.4,7.6,37,0.00,,---,0.00,VWS V14.01,2013-06-30 07:19:00,
2013-06-30 10:25:00,75.6,47.5,29.74,West,281,7.6,10.1,37,0.00,,---,0.00,VWS V14.01,2013-06-30 07:25:00,
2013-06-30 10:31:00,75.6,46.8,29.74,West,267,0.0,0.0,36,0.00,,---,0.00,VWS V14.01,2013-06-30 07:31:00,
2013-06-30 10:36:00,76.3,48.1,29.74,WSW,251,5.4,8.1,37,0.00,,---,0.00,VWS V14.01,2013-06-30 07:36:00,
2013-06-30 10:42:00,76.3,47.4,29.74,SW,219,5.8,5.8,36,0.00,,---,0.00,VWS V14.01,2013-06-30 07:42:00,
2013-06-30 10:47:00,76.5,46.8,29.74,West,261,6.3,8.1,35,0.00,,---,0.00,VWS V14.01,2013-06-30 07:47:00,
2013-06-30 10:53:00,76.6,47.7,29.74,WSW,253,5.8,5.8,36,0.00,,---,0.00,VWS V14.01,2013-06-30 07:53:00,
2013-06-30 10:59:00,76.6,47.0,29.74,WSW,246,7.6,8.3,35,0.00,,---,0.00,VWS V14.01,2013-06-30 07:59:00,
2013-06-30 11:04:00,76.8,47.9,29.74,SW,229,8.1,8.1,36,0.00,,---,0.00,VWS V14.01,2013-06-30 08:04:00,
2013-06-30 11:10:00,76.5,49.0,29.74,WSW,248,7.6,7.6,38,0.00,,---,0.00,VWS V14.01,2013-06-30 08:10:00,
2013-06-30 11:15:00,76.8,49.3,29.74,WSW,237,6.3,11.0,38,0.00,,---,0.00,VWS V14.01,2013-06-30 08:15:00,
2013-06-30 11:21:00,77.0,49.5,29.74,South,175,7.6,7.6,38,0.00,,---,0.00,VWS V14.01,2013-06-30 08:21:00,
2013-06-30 11:26:00,77.4,49.1,29.74,SSW,198,11.0,11.0,37,0.00,,---,0.00,VWS V14.01,2013-06-30 08:26:00,
2013-06-30 11:31:00,77.2,48.2,29.74,West,268,8.1,14.5,36,0.00,,---,0.00,VWS V14.01,2013-06-30 08:31:00,
2013-06-30 11:36:00,77.2,48.2,29.74,West,263,6.3,6.3,36,0.00,,---,0.00,VWS V14.01,2013-06-30 08:36:00,
2013-06-30 11:42:00,77.2,48.9,29.74,South,186,5.4,7.6,37,0.00,,---,0.00,VWS V14.01,2013-06-30 08:42:00,
2013-06-30 11:48:00,77.2,48.2,29.74,West,280,5.8,8.7,36,0.00,,---,0.00,VWS V14.01,2013-06-30 08:48:00,
2013-06-30 11:53:00,77.0,48.8,29.74,WSW,237,8.3,8.3,37,0.00,,---,0.00,VWS V14.01,2013-06-30 08:53:00,
2013-06-30 11:59:00,77.7,48.7,29.74,SW,229,8.1,8.1,36,0.00,,---,0.00,VWS V14.01,2013-06-30 08:59:00,
2013-06-30 12:04:00,77.7,48.7,29.74,SW,226,5.4,6.3,36,0.00,,---,0.00,VWS V14.01,2013-06-30 09:04:00,
2013-06-30 12:10:00,77.5,48.5,29.74,SW,225,4.0,5.8,36,0.00,,---,0.00,VWS V14.01,2013-06-30 09:10:00,
2013-06-30 12:16:00,78.3,49.1,29.74,NW,306,2.7,4.0,36,0.00,,---,0.00,VWS V14.01,2013-06-30 09:16:00,
2013-06-30 12:21:00,78.3,48.4,29.74,West,261,5.4,5.4,35,0.00,,---,0.00,VWS V14.01,2013-06-30 09:21:00,
2013-06-30 12:27:00,77.9,47.3,29.74,SSE,164,3.1,6.3,34,0.00,,---,0.00,VWS V14.01,2013-06-30 09:27:00,
2013-06-30 12:32:00,78.4,47.8,29.74,SSE,149,4.0,4.0,34,0.00,,---,0.00,VWS V14.01,2013-06-30 09:32:00,
2013-06-30 12:37:00,78.8,48.9,29.74,SSW,203,3.6,3.6,35,0.00,,---,0.00,VWS V14.01,2013-06-30 09:37:00,
2013-06-30 12:42:00,79.0,49.0,29.74,South,172,6.3,8.3,35,0.00,,---,0.00,VWS V14.01,2013-06-30 09:42:00,
2013-06-30 12:48:00,79.2,49.2,29.74,NW,304,7.6,7.6,35,0.00,,---,0.00,VWS V14.01,2013-06-30 09:48:00,
2013-06-30 12:53:00,79.2,48.4,29.74,WNW,291,5.4,7.6,34,0.00,,---,0.00,VWS V14.01,2013-06-30 09:53:00,
2013-06-30 12:59:00,79.0,48.2,29.74,SW,234,2.7,4.0,34,0.00,,---,0.00,VWS V14.01,2013-06-30 09:59:00,
2013-06-30 13:05:00,79.0,47.5,29.74,NW,323,5.4,9.6,33,0.00,,---,0.00,VWS V14.01,2013-06-30 10:05:00,
2013-06-30 13:10:00,79.0,48.2,29.74,WNW,295,6.3,8.3,34,0.00,,---,0.00,VWS V14.01,2013-06-30 10:10:00,
2013-06-30 13:16:00,79.5,48.7,29.74,West,259,6.3,6.7,34,0.00,,---,0.00,VWS V14.01,2013-06-30 10:16:00,
2013-06-30 13:21:00,78.8,48.1,29.74,WSW,251,4.9,8.3,34,0.00,,---,0.00,VWS V14.01,2013-06-30 10:21:00,
2013-06-30 13:27:00,79.0,48.2,29.74,SW,214,10.1,15.4,34,0.00,,---,0.00,VWS V14.01,2013-06-30 10:27:00,
2013-06-30 13:32:00,79.0,48.2,29.74,SSW,198,5.4,8.7,34,0.00,,---,0.00,VWS V14.01,2013-06-30 10:32:00,
2013-06-30 13:38:00,79.3,49.3,29.74,SW,229,8.7,8.7,35,0.00,,---,0.00,VWS V14.01,2013-06-30 10:38:00,
2013-06-30 13:44:00,79.3,49.3,29.74,WSW,250,12.3,14.5,35,0.00,,---,0.00,VWS V14.01,2013-06-30 10:44:00,
2013-06-30 13:49:00,79.2,48.4,29.74,WSW,247,5.8,11.0,34,0.00,,---,0.00,VWS V14.01,2013-06-30 10:49:00,
2013-06-30 13:55:00,78.8,48.9,29.74,SSE,156,8.3,11.0,35,0.00,,---,0.00,VWS V14.01,2013-06-30 10:55:00,
2013-06-30 14:01:00,79.0,48.2,29.74,SSE,166,3.1,5.8,34,0.00,,---,0.00,VWS V14.01,2013-06-30 11:01:00,
2013-06-30 14:06:00,79.3,49.3,29.74,WSW,241,7.6,9.6,35,0.00,,---,0.00,VWS V14.01,2013-06-30 11:06:00,
2013-06-30 14:12:00,79.5,49.5,29.74,SSW,200,5.4,8.3,35,0.00,,---,0.00,VWS V14.01,2013-06-30 11:12:00,
2013-06-30 14:17:00,79.7,49.7,29.74,SE,144,3.6,8.3,35,0.00,,---,0.00,VWS V14.01,2013-06-30 11:17:00,
2013-06-30 14:23:00,80.4,49.5,29.74,SW,231,5.4,6.3,34,0.00,,---,0.00,VWS V14.01,2013-06-30 11:23:00,
2013-06-30 14:28:00,79.7,48.9,29.74,SSW,208,3.6,10.5,34,0.00,,---,0.00,VWS V14.01,2013-06-30 11:28:00,
2013-06-30 14:34:00,79.5,48.7,29.74,SW,218,10.1,10.1,34,0.00,,---,0.00,VWS V14.01,2013-06-30 11:34:00,
2013-06-30 14:40:00,79.3,49.3,29.74,South,171,11.0,11.0,35,0.00,,---,0.00,VWS V14.01,2013-06-30 11:40:00,
2013-06-30 14:45:00,79.5,48.7,29.74,SSW,200,5.4,9.6,34,0.00,,---,0.00,VWS V14.01,2013-06-30 11:45:00,
2013-06-30 14:51:00,80.2,49.3,29.74,South,188,7.6,10.5,34,0.00,,---,0.00,VWS V14.01,2013-06-30 11:51:00,
2013-06-30 14:57:00,79.5,48.7,29.74,South,174,6.3,8.3,34,0.00,,---,0.00,VWS V14.01,2013-06-30 11:57:00,
2013-06-30 15:02:00,79.7,48.9,29.74,SSE,152,4.9,5.8,34,0.00,,---,0.00,VWS V14.01,2013-06-30 12:02:00,
2013-06-30 15:08:00,80.1,48.4,29.74,WSW,256,8.1,8.7,33,0.00,,---,0.00,VWS V14.01,2013-06-30 12:08:00,
2013-06-30 15:13:00,79.9,48.2,29.74,SSW,195,6.7,6.7,33,0.00,,---,0.00,VWS V14.01,2013-06-30 12:13:00,
2013-06-30 15:19:00,79.7,48.1,29.74,SE,144,5.4,8.1,33,0.00,,---,0.00,VWS V14.01,2013-06-30 12:19:00,
2013-06-30 15:24:00,80.1,48.4,29.74,SE,130,3.6,6.3,33,0.00,,---,0.00,VWS V14.01,2013-06-30 12:24:00,
2013-06-30 15:30:00,80.2,48.5,29.74,WSW,255,4.0,4.0,33,0.00,,---,0.00,VWS V14.01,2013-06-30 12:30:00,
2013-06-30 15:36:00,80.6,48.0,29.74,SSE,159,8.7,8.7,32,0.00,,---,0.00,VWS V14.01,2013-06-30 12:36:00,
2013-06-30 15:41:00,81.0,48.4,29.74,West,268,2.7,4.5,32,0.00,,---,0.00,VWS V14.01,2013-06-30 12:41:00,
2013-06-30 15:47:00,81.3,48.7,29.74,SSW,195,3.6,5.4,32,0.00,,---,0.00,VWS V14.01,2013-06-30 12:47:00,
2013-06-30 15:52:00,80.4,47.9,29.74,SE,126,0.0,3.1,32,0.00,,---,0.00,VWS V14.01,2013-06-30 12:52:00,
2013-06-30 15:58:00,80.4,47.9,29.74,South,179,2.7,5.4,32,0.00,,---,0.00,VWS V14.01,2013-06-30 12:58:00,
2013-06-30 16:04:00,80.4,49.5,29.74,ESE,112,2.7,6.3,34,0.00,,---,0.00,VWS V14.01,2013-06-30 13:04:00,
2013-06-30 16:09:00,79.5,49.5,29.74,ESE,114,8.3,8.3,35,0.00,,---,0.00,VWS V14.01,2013-06-30 13:09:00,
2013-06-30 16:15:00,78.8,49.6,29.74,East,80,7.6,9.6,36,0.00,,---,0.00,VWS V14.01,2013-06-30 13:15:00,
2013-06-30 16:20:00,78.3,51.3,29.74,East,91,4.9,8.1,39,0.00,,---,0.00,VWS V14.01,2013-06-30 13:20:00,
2013-06-30 16:26:00,78.3,51.3,29.74,East,79,5.8,8.7,39,0.00,,---,0.00,VWS V14.01,2013-06-30 13:26:00,
2013-06-30 16:32:00,78.4,50.8,29.74,NNE,29,0.0,3.6,38,0.00,,---,0.00,VWS V14.01,2013-06-30 13:32:00,
2013-06-30 16:37:00,79.0,50.5,29.71,SSE,162,3.1,6.3,37,0.00,,---,0.00,VWS V14.01,2013-06-30 13:37:00,
2013-06-30 16:42:00,79.3,50.1,29.71,NE,55,4.0,4.0,36,0.00,,---,0.00,VWS V14.01,2013-06-30 13:42:00,
2013-06-30 16:47:00,80.1,50.7,29.71,ESE,117,5.4,7.6,36,0.00,,---,0.00,VWS V14.01,2013-06-30 13:47:00,
2013-06-30 16:53:00,80.4,51.0,29.74,ESE,119,4.0,5.4,36,0.00,,---,0.00,VWS V14.01,2013-06-30 13:53:00,
2013-06-30 16:58:00,79.9,51.3,29.74,East,81,6.3,11.0,37,0.00,,---,0.00,VWS V14.01,2013-06-30 13:58:00,
2013-06-30 17:04:00,79.7,52.6,29.74,SSE,155,7.6,8.3,39,0.00,,---,0.00,VWS V14.01,2013-06-30 14:04:00,
2013-06-30 17:09:00,79.3,53.0,29.74,ENE,59,5.4,5.4,40,0.00,,---,0.00,VWS V14.01,2013-06-30 14:09:00,
2013-06-30 17:15:00,79.5,53.1,29.74,SE,124,3.6,8.3,40,0.00,,---,0.00,VWS V14.01,2013-06-30 14:15:00,
2013-06-30 17:21:00,79.2,52.1,29.74,East,79,5.4,8.3,39,0.00,,---,0.00,VWS V14.01,2013-06-30 14:21:00,
2013-06-30 17:26:00,79.0,54.0,29.74,ESE,107,2.7,3.6,42,0.00,,---,0.00,VWS V14.01,2013-06-30 14:26:00,
2013-06-30 17:31:00,79.2,54.1,29.74,ENE,78,5.4,10.5,42,0.00,,---,0.00,VWS V14.01,2013-06-30 14:31:00,
2013-06-30 17:37:00,78.4,54.1,29.74,East,81,4.0,5.8,43,0.00,,---,0.00,VWS V14.01,2013-06-30 14:37:00,
2013-06-30 17:43:00,77.9,54.3,29.74,ENE,67,4.0,6.3,44,0.00,,---,0.00,VWS V14.01,2013-06-30 14:43:00,
2013-06-30 17:49:00,77.4,53.8,29.74,East,100,5.4,10.5,44,0.00,,---,0.00,VWS V14.01,2013-06-30 14:49:00,
2013-06-30 17:54:00,77.5,54.5,29.74,ESE,119,6.3,7.2,45,0.00,,---,0.00,VWS V14.01,2013-06-30 14:54:00,
2013-06-30 18:00:00,77.4,53.8,29.74,East,100,6.3,6.3,44,0.00,,---,0.00,VWS V14.01,2013-06-30 15:00:00,
2013-06-30 18:05:00,77.5,53.9,29.74,ENE,74,3.6,7.6,44,0.00,,---,0.00,VWS V14.01,2013-06-30 15:05:00,
2013-06-30 18:10:00,77.5,53.9,29.74,ESE,111,8.1,8.1,44,0.00,,---,0.00,VWS V14.01,2013-06-30 15:10:00,
2013-06-30 18:15:00,77.5,53.9,29.74,SE,130,3.1,8.7,44,0.00,,---,0.00,VWS V14.01,2013-06-30 15:15:00,
2013-06-30 18:20:00,77.4,53.8,29.74,ESE,120,8.3,8.3,44,0.00,,---,0.00,VWS V14.01,2013-06-30 15:20:00,
2013-06-30 18:25:00,77.2,53.6,29.74,ESE,104,5.4,6.3,44,0.00,,---,0.00,VWS V14.01,2013-06-30 15:25:00,
2013-06-30 18:31:00,77.5,53.3,29.74,SE,131,4.0,7.6,43,0.00,,---,0.00,VWS V14.01,2013-06-30 15:31:00,
2013-06-30 18:36:00,77.7,53.5,29.74,ESE,117,7.6,8.7,43,0.00,,---,0.00,VWS V14.01,2013-06-30 15:36:00,
2013-06-30 18:42:00,77.5,53.9,29.74,SE,142,5.4,8.1,44,0.00,,---,0.00,VWS V14.01,2013-06-30 15:42:00,
2013-06-30 18:47:00,77.7,53.5,29.74,ESE,108,6.3,6.3,43,0.00,,---,0.00,VWS V14.01,2013-06-30 15:47:00,
2013-06-30 18:52:00,78.1,53.8,29.74,ESE,105,3.6,6.3,43,0.00,,---,0.00,VWS V14.01,2013-06-30 15:52:00,
2013-06-30 18:58:00,77.9,53.6,29.74,SE,137,4.0,10.5,43,0.00,,---,0.00,VWS V14.01,2013-06-30 15:58:00,
2013-06-30 19:03:00,77.2,53.6,29.74,SE,127,5.4,13.2,44,0.00,,---,0.00,VWS V14.01,2013-06-30 16:03:00,
2013-06-30 19:09:00,76.8,53.3,29.74,ESE,123,8.3,8.7,44,0.00,,---,0.00,VWS V14.01,2013-06-30 16:09:00,
2013-06-30 19:14:00,76.6,53.1,29.74,ESE,118,8.3,8.3,44,0.00,,---,0.00,VWS V14.01,2013-06-30 16:14:00,
2013-06-30 19:19:00,76.5,53.0,29.74,ESE,121,8.1,8.1,44,0.00,,---,0.00,VWS V14.01,2013-06-30 16:19:00,
2013-06-30 19:24:00,76.5,53.6,29.77,ESE,105,5.8,8.3,45,0.00,,---,0.00,VWS V14.01,2013-06-30 16:24:00,
2013-06-30 19:30:00,76.3,54.0,29.77,ESE,107,3.6,5.8,46,0.00,,---,0.00,VWS V14.01,2013-06-30 16:30:00,
2013-06-30 19:35:00,76.3,54.0,29.77,SE,141,4.0,6.3,46,0.00,,---,0.00,VWS V14.01,2013-06-30 16:35:00,
2013-06-30 19:40:00,76.1,53.8,29.77,SE,139,3.6,8.1,46,0.00,,---,0.00,VWS V14.01,2013-06-30 16:40:00,
2013-06-30 19:45:00,75.9,53.7,29.77,East,89,2.7,5.8,46,0.00,,---,0.00,VWS V14.01,2013-06-30 16:45:00,
2013-06-30 19:51:00,75.7,52.9,29.77,ESE,119,10.1,10.1,45,0.00,,---,0.00,VWS V14.01,2013-06-30 16:51:00,
2013-06-30 19:56:00,75.7,53.5,29.77,East,96,5.8,7.6,46,0.00,,---,0.00,VWS V14.01,2013-06-30 16:56:00,
2013-06-30 20:02:00,75.7,53.5,29.77,ESE,108,5.4,7.6,46,0.00,,---,0.00,VWS V14.01,2013-06-30 17:02:00,
2013-06-30 20:08:00,75.9,53.7,29.77,SE,130,6.3,7.6,46,0.00,,---,0.00,VWS V14.01,2013-06-30 17:08:00,
2013-06-30 20:14:00,75.7,53.5,29.77,SE,135,4.0,4.9,46,0.00,,---,0.00,VWS V14.01,2013-06-30 17:14:00,
2013-06-30 20:20:00,75.7,53.5,29.77,SE,141,0.0,0.0,46,0.00,,---,0.00,VWS V14.01,2013-06-30 17:20:00,
2013-06-30 20:25:00,75.7,52.9,29.77,SE,128,3.1,3.1,45,0.00,,---,0.00,VWS V14.01,2013-06-30 17:25:00,
2013-06-30 20:30:00,75.7,52.9,29.77,East,85,0.0,0.0,45,0.00,,---,0.00,VWS V14.01,2013-06-30 17:30:00,
2013-06-30 20:35:00,75.6,52.8,29.77,ESE,109,4.0,4.0,45,0.00,,---,0.00,VWS V14.01,2013-06-30 17:35:00,
2013-06-30 20:41:00,75.6,52.8,29.77,SE,141,0.0,0.0,45,0.00,,---,0.00,VWS V14.01,2013-06-30 17:41:00,
2013-06-30 20:46:00,75.6,52.8,29.77,SE,129,3.1,4.0,45,0.00,,---,0.00,VWS V14.01,2013-06-30 17:46:00,
2013-06-30 20:52:00,75.4,52.6,29.77,SSE,148,0.0,0.0,45,0.00,,---,0.00,VWS V14.01,2013-06-30 17:52:00,
2013-06-30 20:58:00,75.4,52.6,29.77,SSE,150,2.7,3.6,45,0.00,,---,0.00,VWS V14.01,2013-06-30 17:58:00,
2013-06-30 21:03:00,75.2,52.4,29.77,SE,144,0.0,0.0,45,0.00,,---,0.00,VWS V14.01,2013-06-30 18:03:00,
2013-06-30 21:09:00,75.2,52.4,29.80,SE,146,0.0,0.0,45,0.00,,---,0.00,VWS V14.01,2013-06-30 18:09:00,
2013-06-30 21:15:00,75.0,52.3,29.80,SE,144,0.0,0.0,45,0.00,,---,0.00,VWS V14.01,2013-06-30 18:15:00,
2013-06-30 21:20:00,74.8,52.1,29.80,East,79,0.0,0.0,45,0.00,,---,0.00,VWS V14.01,2013-06-30 18:20:00,
2013-06-30 21:26:00,74.8,52.1,29.80,SE,143,0.0,0.0,45,0.00,,---,0.00,VWS V14.01,2013-06-30 18:26:00,
2013-06-30 21:31:00,74.7,51.9,29.80,ESE,109,4.0,4.0,45,0.00,,---,0.00,VWS V14.01,2013-06-30 18:31:00,
2013-06-30 21:37:00,74.7,52.5,29.80,East,101,0.0,0.0,46,0.00,,---,0.00,VWS V14.01,2013-06-30 18:37:00,
2013-06-30 21:43:00,74.7,53.1,29.80,North,1,0.0,3.6,47,0.00,,---,0.00,VWS V14.01,2013-06-30 18:43:00,
2013-06-30 21:48:00,74.7,53.1,29.80,North,1,0.0,0.0,47,0.00,,---,0.00,VWS V14.01,2013-06-30 18:48:00,
2013-06-30 21:53:00,74.5,53.0,29.80,SW,235,0.0,0.0,47,0.00,,---,0.00,VWS V14.01,2013-06-30 18:53:00,
2013-06-30 21:58:00,74.3,52.8,29.80,SW,236,0.0,0.0,47,0.00,,---,0.00,VWS V14.01,2013-06-30 18:58:00,
2013-06-30 22:04:00,74.3,52.8,29.80,SW,223,0.0,0.0,47,0.00,,---,0.00,VWS V14.01,2013-06-30 19:04:00,
2013-06-30 22:09:00,74.1,52.6,29.80,SW,222,0.0,0.0,47,0.00,,---,0.00,VWS V14.01,2013-06-30 19:09:00,
2013-06-30 22:15:00,73.9,53.0,29.80,SW,223,0.0,0.0,48,0.00,,---,0.00,VWS V14.01,2013-06-30 19:15:00,
2013-06-30 22:20:00,73.9,53.6,29.80,NNE,16,0.0,0.0,49,0.00,,---,0.00,VWS V14.01,2013-06-30 19:20:00,
2013-06-30 22:26:00,73.8,53.4,29.83,NE,39,0.0,0.0,49,0.00,,---,0.00,VWS V14.01,2013-06-30 19:26:00,
2013-06-30 22:31:00,73.8,53.4,29.83,NNE,24,0.0,0.0,49,0.00,,---,0.00,VWS V14.01,2013-06-30 19:31:00,
2013-06-30 22:37:00,73.8,53.4,29.83,North,0,0.0,0.0,49,0.00,,---,0.00,VWS V14.01,2013-06-30 19:37:00,
2013-06-30 22:43:00,73.8,54.0,29.83,North,350,0.0,0.0,50,0.00,,---,0.00,VWS V14.01,2013-06-30 19:43:00,
2013-06-30 22:48:00,73.6,54.4,29.83,North,357,0.0,0.0,51,0.00,,---,0.00,VWS V14.01,2013-06-30 19:48:00,
2013-06-30 22:53:00,73.6,54.9,29.83,North,11,0.0,0.0,52,0.00,,---,0.00,VWS V14.01,2013-06-30 19:53:00,
2013-06-30 22:58:00,73.4,54.7,29.83,North,7,3.1,3.6,52,0.00,,---,0.00,VWS V14.01,2013-06-30 19:58:00,
2013-06-30 23:04:00,73.4,55.2,29.83,North,1,0.0,0.0,53,0.00,,---,0.00,VWS V14.01,2013-06-30 20:04:00,
2013-06-30 23:09:00,73.4,55.2,29.83,North,2,0.0,3.6,53,0.00,,---,0.00,VWS V14.01,2013-06-30 20:09:00,
2013-06-30 23:14:00,73.2,55.6,29.83,NNE,12,0.0,0.0,54,0.00,,---,0.00,VWS V14.01,2013-06-30 20:14:00,
2013-06-30 23:19:00,73.2,55.6,29.83,NNE,13,0.0,0.0,54,0.00,,---,0.00,VWS V14.01,2013-06-30 20:19:00,
2013-06-30 23:25:00,73.2,56.1,29.83,ENE,60,0.0,0.0,55,0.00,,---,0.00,VWS V14.01,2013-06-30 20:25:00,
2013-06-30 23:30:00,73.2,56.1,29.83,ENE,59,0.0,0.0,55,0.00,,---,0.00,VWS V14.01,2013-06-30 20:30:00,
2013-06-30 23:36:00,73.0,55.9,29.83,NE,49,0.0,0.0,55,0.00,,---,0.00,VWS V14.01,2013-06-30 20:36:00,
2013-06-30 23:42:00,73.0,55.9,29.83,NE,49,0.0,0.0,55,0.00,,---,0.00,VWS V14.01,2013-06-30 20:42:00,
2013-06-30 23:47:00,73.0,55.9,29.83,NE,49,0.0,0.0,55,0.00,,---,0.00,VWS V14.01,2013-06-30 20:47:00,
2013-06-30 23:52:00,72.9,55.8,29.83,NE,49,0.0,0.0,55,0.00,,---,0.00,VWS V14.01,2013-06-30 20:52:00,
2013-06-30 23:57:00,72.9,55.8,29.83,North,357,0.0,0.0,55,0.00,,---,0.00,VWS V14.01,2013-06-30 20:57:00,